Location: Unspecified
(40.4223°N, 0.0000°E)
Time: 04:06:11
(UTC+00:00)

NOAA 15 - Visible Passes

Search period start: 04 April 2026 00:00
Search period end: 14 April 2026 00:00
Orbit: 795 x 808 km, 98.5° (Epoch: 29 March)

Date Brightness Start Highest point End Pass type
(mag) Time Alt. Az. Time Alt. Az. Time Alt. Az.
4 Apr 5.6 18:49:22 10° S 18:54:30 51° W 18:59:40 10° NNW visible
5 Apr 8.0 20:08:25 10° W 20:08:38 10° W 20:08:51 10° W visible
6 Apr 7.3 19:38:24 10° SW 19:42:04 19° W 19:45:45 10° NW visible
7 Apr 6.5 19:10:54 10° SSW 19:15:37 33° W 19:20:22 10° NNW visible
9 Apr 7.7 20:01:37 10° WSW 20:03:20 11° W 20:05:03 10° WNW visible
10 Apr 7.3 19:32:52 10° SW 19:36:48 21° W 19:40:44 10° NW visible
11 Apr 6.3 19:05:31 10° SSW 19:10:21 36° W 19:15:14 10° NNW visible
13 Apr 7.6 19:55:38 10° WSW 19:58:02 13° W 20:00:26 10° WNW visible
